Regional Weather Roundup
Issued by NWS Newport/Morehead, NC

Current Version | Previous Version | Graphics & Text | Print | Product List | Glossary Off
Versions: 1 2 3 4 5 6 7 8 9 10 11 12 13 14 15 16 17 18 19 20 21 22 23 24 25 26 27 28 29 30 31 32 33 34 35 36 37 38 39 40 41 42 43 44 45 46 47 48 49 50
000 ASUS42 KMHX 292225 RWRMHX WEATHER ROUNDUP FOR EASTERN NORTH CAROLINA NATIONAL WEATHER SERVICE NEWPORT/MOREHEAD CITY NC 600 PM EDT MON AUG 29 2016 NOTE: "FAIR" INDICATES FEW OR NO CLOUDS BELOW 12,000 FEET WITH NO SIGNIFICANT WEATHER AND/OR OBSTRUCTIONS TO VISIBILITY NCZ015>017-031-032-045>047-102-103-292300- NORTH COAST CITY SKY/WX TMP DP RH WIND PRES REMARKS EDENTON MOSUNNY 85 71 61 NE8 30.08S ELIZABETH CITY CLOUDY 81 66 60 NE12 30.09R KITTY HAWK PTCLDY 82 73 73 NE7 30.07R MANTEO SUNNY 80 71 74 NE12 30.08R $$ NCZ045>047-081-094-103-104-292300- CENTRAL COAST CITY SKY/WX TMP DP RH WIND PRES REMARKS FRISCO MOSUNNY 83 75 77 VRB7G21 30.05R $$ NCZ095-097-098-100-101-292300- SOUTHERN COAST CITY SKY/WX TMP DP RH WIND PRES REMARKS BEAUFORT CLOUDY 85 76 74 N10 30.04R CEDAR ISLAND NOT AVBL JACKSONVILLE MOSUNNY 79 73 82 NE6 30.05F PINEY ISLAND NOT AVBL WILMINGTON CLOUDY 76 74 93 N5 30.06S $$ NCZ011>013-027>030-043-044-078>080-089-090>093-098-292300- COASTAL PLAIN CITY SKY/WX TMP DP RH WIND PRES REMARKS AHOSKIE MOSUNNY 84 73 71 SE5 30.08S CLINTON LGT RAIN 79 74 85 CALM 30.07R ELIZABETHTOWN MOSUNNY 87 72 59 CALM 30.05R GOLDSBORO CLOUDY 84 73 70 E10 30.06R THUNDER GREENVILLE CLOUDY 86 75 70 E8 30.08S HAVELOCK MOSUNNY 79 74 84 NE8 30.06F KENANSVILLE CLOUDY 77 75 94 CALM 30.07S KINSTON CLOUDY 84 73 70 E6 30.07S NEW BERN CLOUDY 77 75 93 CALM 30.07F RICHLANDS CLOUDY 79 76 90 CALM 30.07R ROCKY MOUNT CLOUDY 88 70 55 NE7 30.07R WASHINGTON CLOUDY 81 74 81 NE5 30.07S WHITEVILLE CLOUDY 83 69 63 CALM 30.04S $$ AMZ130-135-150-152-154-156-158-170-250-252-270-ANZ085-086-088-633-658-670-292300- MARINE OBSERVATIONS STATION/POSITION TIME TEMP WIND PRES WAVE SWELL AIR SEA DIR/SP/G HT/PER HT/PER (UTC) (F) (DEG/KT/KT) (MB) (FT/S) (FT/S) CHESAPEAKE LIGHT NOT AVBL 64 E VA BEACH 2150 79 81 40/ 14/ 17 1018.0 5/13 3/13 DUCK 2200 79 79 N/A 2 E DUCK 2111 81 N/A 5/13 2/13 OREGON INLET 2200 80 81 N/A 13E OREGON INLT 2100 81 N/A 5/13 3/13 HATTERAS CG 2200 82 83 N/A DIAMOND BUOY 2150 80 84 60/ 21/ 27 1016.3 6/ 8 3/13 CAPE LOOKOUT 2200 83 40/ 17/ 20 1016.8 BEAUFORT LAB 2200 85 82 N/A 30 SE NEW RVR IN 2208 84 84 60/ 14/ 17 1016.8 30 SE NEW RVR IN 2055 84 N/A 4/13 2/13 27 SE WRIGHTSVLE 2208 84 84 50/ 10/ 14 1017.1 5 SE WRIGHTSVLE 2108 83 84 80/ 10/ 14 1018.0 225 S CAPE HAT 2150 83 84 310/ 8/ 10 1014.9 4/11 5/11 41 SE CHARLESTON 2150 84 85 40/ 12/ 12 1016.2 3/13 3/13 $$

USA.gov is the U.S. government's official web portal to all federal, state and local government web resources and services.